This demonstration page uses our WeatherBlox Daily Observations layout. Learn more.

Left ArrowRight Arrow

39.08367, -84.50855

Hourly Observations for April 6, 2018

Temp ( °F °C ) Dew Point ( °F °C ) Humidity (%) Winds ( mph kmh ) Pressure ( in mb ) Visibility ( mi km ) Precip ( " mm )
12:53 am 00:53 Mostly Clear 43 6.1 32 undefined 65 65 N N/A 30.04 1017 10 16 N/A
1:53 am 01:53 Cloudy 42 5.6 34 1.1 73 73 N N/A 30.03 1017 10 16 N/A
2:53 am 02:53 Cloudy 41 5 36 2.2 82 82 SSW 3 6 29.98 1015 10 16 N/A
3:53 am 03:53 Cloudy 42 5.6 33 0.6 71 71 SW 5 7 29.95 1014 10 16 N/A
4:53 am 04:53 Mostly Clear 41 5 34 1.1 76 76 WSW 6 9 29.93 1014 10 16 N/A
5:53 am 05:53 Mostly Clear 41 5 34 1.1 76 76 SSW 8 13 29.93 1013 10 16 N/A
6:53 am 06:53 Clear 42 5.6 32 undefined 68 68 SSW 8 13 29.92 1013 10 16 N/A
7:53 am 07:53 Mostly Cloudy 44 6.7 32 undefined 63 63 SSW 9 15 29.93 1014 10 16 N/A
8:53 am 08:53 Sunny 47 8.3 33 0.6 59 59 SW 6 9 29.93 1014 10 16 N/A
9:53 am 09:53 Sunny 52 11.1 33 0.6 49 49 WSW 13 20 29.94 1014 10 16 N/A
10:53 am 10:53 Sunny 54 12.2 35 1.7 49 49 W 13 20 29.93 1014 10 16 N/A
11:53 am 11:53 Sunny 57 13.9 38 3.3 49 49 SW 10 17 29.92 1013 10 16 N/A
12:53 pm 12:53 Sunny 59 15 39 3.9 48 48 WSW 12 19 29.89 1012 10 16 N/A
1:53 pm 13:53 Sunny 59 15 38 3.3 46 46 SW 10 17 29.88 1012 10 16 N/A
2:53 pm 14:53 Sunny 60 15.6 39 3.9 46 46 WSW 20 31 29.85 1011 10 16 N/A
3:53 pm 15:53 Cloudy 59 15 39 3.9 48 48 WSW 14 22 29.85 1011 10 16 N/A
4:53 pm 16:53 Cloudy 57 13.9 35 1.7 44 44 WNW 12 19 29.86 1011 10 16 N/A
5:53 pm 17:53 Cloudy 55 12.8 32 undefined 42 42 NW 14 22 29.86 1011 10 16 N/A
6:53 pm 18:53 Cloudy 51 10.6 30 -1.1 44 44 NW 14 22 29.88 1012 10 16 N/A
7:53 pm 19:53 Cloudy 43 6.1 33 0.6 68 68 NNW 20 31 29.94 1014 10 16 N/A
8:36 pm 20:36 Cloudy with Light Rain 39 3.9 34 1.1 82 82 NW 16 26 29.97 1015 10 16 N/A
8:53 pm 20:53 Cloudy with Light Rain 38 3.3 33 0.6 83 83 NNW 13 20 29.99 1016 10 16 N/A
9:53 pm 21:53 Cloudy 36 2.2 31 -0.6 82 82 NW 17 28 30.03 1017 10 16 N/A
10:38 pm 22:38 Cloudy with Light Snow 34 1.1 30 -1.1 85 85 NNW 7 11 30.03 1017 5 8 0.01 0.25
10:53 pm 22:53 Cloudy with Light Snow 33 0.6 30 -1.1 89 89 NNW 14 22 30.04 1017 3 5 0.01 0.25
11:28 pm 23:28 Cloudy with Light Snow 33 0.6 29 -1.7 85 85 NNW 13 20 30.03 1017 5 8 N/A
11:53 pm 23:53 Cloudy with Light Snow 33 0.6 29 -1.7 85 85 N 9 15 30.03 1017 7 11 N/A

Powered by AerisWeather